Location: Goettingen
(51.5300°N, 9.9433°E)
Time: 03:35:31
(UTC+02:00)

ISS - Pass Details

Date: 17 September 2018
Orbit: 403 x 408 km, 51.6° (Epoch: 25 September)

Event Time Altitude Azimuth Distance (km) Brightness Sun altitude
Exits shadow 04:54:25 14° 155° (SSE) 1,241 -1.4 -19.0°
Drops below altitude 10° 04:55:03 10° 149° (SSE) 1,457 -1.0 -18.9°
Sets 04:57:16 0° 138° (SE) 2,312 0.2 -18.6°
